EHI
0 0 0 0 0 0 0 0 0 1 6 12 15 13 11 9 12 20 28 35 48 61 70 67 55 46 39 35 36 35 29 24 21 19 17 15 15 18 23 23 19 17 14 9
0 0 0 0 0 0 0 0 1 2 8 16 20 17 14 12 14 23 29 34 44 59 67 66 58 49 44 41 42 41 35 27 24 23 20 16 15 19 25 26 25 22 17 13
0 0 0 0 0 0 1 1 2 6 12 19 22 21 19 17 19 25 31 35 42 53 61 62 58 54 50 47 47 47 40 31 27 27 25 20 17 22 29 32 31 29 24 20
0 0 0 0 1 1 3 4 7 12 16 18 19 20 21 23 24 30 37 41 43 48 54 58 57 56 53 50 48 47 41 34 30 30 30 27 26 32 40 42 40 37 32 28
0 0 0 0 1 3 6 9 12 16 18 16 16 17 21 25 28 34 41 44 43 43 48 53 55 57 56 53 49 44 39 36 36 36 36 35 37 43 50 52 49 43 37 32
0 0 0 0 1 3 7 11 16 19 19 19 18 18 20 23 26 31 37 40 39 39 44 49 54 59 59 58 55 47 41 41 44 45 44 42 43 47 50 50 46 39 32 29
0 0 0 1 2 4 9 14 18 20 20 22 23 20 19 20 22 23 27 31 33 35 39 45 52 57 58 59 58 52 47 48 50 50 46 43 44 44 41 38 34 28 24 23
1 1 2 2 3 6 12 16 16 15 16 18 19 19 19 21 22 20 21 23 25 28 32 37 43 48 50 50 51 48 45 45 45 44 39 35 37 37 33 29 25 22 20 20
3 4 5 5 4 6 9 11 11 11 10 10 13 18 21 22 21 18 17 17 18 20 23 25 29 34 38 39 39 37 34 34 33 31 29 26 26 27 26 23 21 19 18 18
4 5 7 7 5 4 5 6 8 10 10 9 11 14 16 16 14 12 12 12 12 13 14 16 19 23 27 29 30 28 26 25 23 22 21 19 18 18 18 17 15 14 14 14
5 4 5 5 4 2 3 6 8 10 10 9 8 7 7 7 7 6 6 6 6 6 6 8 10 13 16 19 21 21 20 19 18 17 15 14 13 11 10 10 9 8 9 9
5 4 3 3 2 2 4 6 8 9 7 5 3 2 2 2 3 2 2 2 1 1 1 2 3 6 8 11 14 16 16 15 16 15 13 11 9 6 4 3 3 3 3 3
5 4 2 2 2 2 4 4 4 4 3 1 1 1 0 1 2 1 0 0 0 0 0 0 0 1 3 6 9 12 13 13 13 13 12 9 7 4 1 0 0 0 0 0
3 2 1 1 1 1 2 2 1 1 1 0 0 0 0 0 0 0 0 0 0 0 0 0 0 0 1 3 5 7 9 10 10 10 10 8 5 2 1 0 0 0 0 0
1 1 1 1 1 1 1 1 0 0 0 0 0 0 0 0 0 0 0 0 0 0 0 0 0 0 1 2 3 5 6 7 7 7 7 5 2 1 0 0 0 0 0 0
0 0 0 0 1 2 2 1 0 0 0 0 0 0 0 0 0 0 0 0 0 0 0 0 0 0 1 2 3 4 5 5 5 5 4 3 1 0 0 0 0 0 0 0
0 0 0 0 1 2 1 0 0 0 0 0 0 0 0 0 0 0 0 0 0 0 0 0 0 0 0 1 1 2 3 3 2 2 2 2 1 0 0 0 0 0 0 0
0 0 0 0 1 1 0 0 0 0 0 0 0 0 0 0 0 0 0 0 0 0 0 0 0 0 0 0 0 1 1 1 0 0 1 1 1 0 0 0 0 0 1 1
0 0 0 0 0 0 0 0 0 0 0 0 0 0 0 0 0 0 0 0 0 0 0 0 0 0 0 0 0 0 0 0 0 0 0 0 0 0 0 0 0 0 0 0
1 1 2 1 0 0 0 0 0 0 0 0 0 0 0 0 0 0 0 0 0 0 0 0 0 0 0 0 0 0 0 0 0 0 0 0 0 0 0 0 0 0 0 0
3 4 4 2 1 0 0 0 0 0 0 0 0 0 0 0 0 0 0 0 0 0 0 0 0 0 0 0 0 0 0 0 0 0 0 0 0 0 0 0 0 0 0 0
6 6 6 4 2 0 0 0 0 0 0 0 0 0 0 0 0 0 0 0 0 0 0 0 0 0 0 0 0 0 0 0 0 0 0 0 0 0 0 0 0 0 0 0
6 5 5 3 1 0 0 0 0 0 0 0 0 0 0 0 0 0 0 0 0 0 0 0 0 0 0 0 0 0 0 0 0 0 0 0 0 0 0 0 0 0 0 0
3 3 2 1 0 0 0 0 0 0 0 0 0 0 0 0 0 0 0 0 0 0 0 0 0 0 0 0 0 0 0 0 0 0 0 0 0 0 0 0 0 0 0 0
1 1 0 0 0 0 0 0 0 0 0 0 0 0 0 0 0 0 0 0 0 0 0 0 0 0 0 0 0 0 0 0 0 0 0 0 0 0 0 0 0 0 0 0
0 0 0 0 0 0 0 0 0 0 0 0 0 0 0 0 0 0 0 0 0 0 0 0 0 0 0 0 0 0 0 0 0 0 0 0 0 0 0 0 0 0 0 0
0 0 0 0 0 0 0 0 0 0 0 0 0 0 0 0 0 0 0 0 0 0 0 0 0 0 0 0 0 0 0 0 0 0 0 0 0 0 0 0 0 0 0 0
Wind_Speed
8 6 7 9 12 10 10 10 7 3 2 4 3 2 3 4 6 7 7 8 8 8 7 7 7 7 8 9 9 10 11 10 9 9 8 8 8 8 8 8 9 8 8 7
9 9 7 9 10 9 11 8 5 5 3 3 3 4 7 4 4 6 6 5 6 7 7 7 7 7 7 7 8 8 9 9 9 9 9 8 8 8 8 8 7 8 8 8
9 8 8 11 9 9 9 7 5 4 2 5 5 6 7 5 4 5 5 4 3 5 5 5 5 6 7 7 8 8 8 9 9 9 9 9 10 9 9 8 7 7 7 7
8 8 11 5 3 5 5 3 2 6 7 7 8 8 9 8 5 5 5 5 4 2 3 4 4 5 5 7 7 7 8 8 8 9 9 9 8 8 8 7 6 6 6 6
6 8 8 2 1 2 1 2 7 8 8 8 8 10 10 8 7 8 9 7 6 4 3 3 3 4 5 5 6 6 6 6 7 8 8 8 8 7 6 6 6 5 5 5
6 7 6 1 6 5 1 3 8 8 7 5 3 3 5 7 9 10 9 7 7 6 6 5 3 4 5 5 5 5 5 5 5 5 6 5 5 5 5 5 5 5 4 4
8 8 2 5 6 5 1 3 6 7 7 7 6 5 6 8 10 9 9 8 8 9 8 7 6 5 5 4 3 3 4 4 4 4 5 5 4 3 3 4 4 3 3 2
6 6 1 7 6 5 4 4 6 7 7 8 9 9 9 10 10 10 10 10 10 10 10 9 8 8 8 6 4 4 5 5 5 5 4 3 4 3 3 3 4 3 3 2
2 3 7 6 6 5 3 4 5 5 6 7 9 10 11 11 11 11 11 10 10 11 11 10 10 9 8 6 6 6 7 7 6 6 5 5 5 4 3 2 2 2 2 2
5 6 8 8 8 7 6 7 6 6 6 8 10 12 11 10 10 10 10 10 10 12 12 11 11 11 9 7 6 7 7 7 7 7 7 6 6 5 4 3 2 2 1 1
5 7 7 8 8 9 8 9 9 11 11 12 13 13 12 11 10 10 11 10 11 11 11 10 10 10 10 8 7 7 7 6 6 6 6 6 7 7 6 6 5 3 3 3
4 6 6 7 7 9 9 9 11 12 13 12 12 13 12 12 11 11 11 10 11 12 12 10 10 10 9 8 7 6 6 5 4 4 4 5 7 7 11 8 9 10 8 6
8 11 11 10 9 10 10 11 12 13 14 13 12 12 13 12 11 11 11 11 11 11 11 10 10 10 9 8 7 6 6 4 3 3 4 4 5 5 5 5 7 8 8 7
9 11 12 10 10 10 12 14 14 14 13 12 11 12 12 12 11 11 11 10 9 9 10 9 10 9 8 7 6 6 6 5 4 3 3 3 3 3 4 4 4 4 3 4
7 10 12 12 11 11 12 13 14 13 13 12 11 12 12 12 11 10 8 8 9 10 10 10 10 9 8 8 7 6 6 5 4 4 4 4 3 3 3 3 3 4 5 3
8 11 12 12 12 12 12 13 13 13 12 12 12 12 11 11 10 9 9 9 10 10 9 9 9 8 8 8 7 4 4 6 5 3 4 4 4 4 4 4 4 5 5 4
9 10 12 12 12 11 12 12 12 12 12 12 12 11 11 10 10 9 9 10 10 9 9 9 8 7 8 9 8 5 5 5 5 5 6 6 6 6 5 4 5 5 5 5
7 9 10 11 11 12 13 13 13 12 12 12 12 11 10 10 9 9 8 9 9 10 9 9 9 8 9 10 8 6 5 6 6 7 6 6 5 5 5 5 5 5 4 4
9 10 11 12 11 12 12 12 12 12 12 11 11 10 10 10 9 8 8 9 9 9 8 9 9 9 9 11 10 5 6 7 7 7 6 6 5 6 6 6 6 6 6 5
10 11 12 12 12 12 12 12 11 11 10 11 11 10 10 9 9 9 10 9 8 7 7 8 8 8 9 10 10 6 8 8 7 6 6 6 6 6 6 7 7 6 6 6
11 12 13 12 13 12 11 11 11 11 10 10 10 10 9 8 8 8 8 8 8 7 6 7 8 8 8 8 7 6 7 7 7 7 6 6 7 7 7 7 7 7 7 7
10 11 12 13 12 12 10 9 10 11 11 10 10 9 8 8 9 9 10 7 7 8 6 7 8 9 11 9 6 7 7 7 7 6 6 6 6 6 7 7 7 7 6 6
10 11 12 12 12 11 11 10 10 10 10 10 9 8 7 6 6 7 8 7 7 8 7 7 8 10 12 6 6 7 8 8 7 7 7 7 7 6 6 7 7 6 6 6
10 11 11 10 10 11 10 10 9 8 9 8 8 7 6 6 7 7 7 7 8 7 7 6 7 9 7 4 6 6 7 7 6 6 7 6 6 6 6 6 6 6 6 7
10 10 10 10 9 8 9 9 9 8 7 6 8 8 7 6 6 6 6 6 5 4 5 5 4 6 5 6 7 7 7 7 7 6 7 6 6 6 6 6 6 6 6 6
9 8 7 7 6 5 5 5 5 5 6 6 6 6 6 5 6 5 4 5 6 5 4 4 4 4 5 6 6 6 6 5 5 6 6 6 6 6 6 6 7 6 6 6
8 7 5 5 5 5 5 5 5 5 6 5 6 5 5 5 4 4 5 4 4 4 4 4 4 4 5 5 5 5 5 5 5 5 5 5 5 5 5 6 6 6 6 7
Wind_Direction
247 226 243 259 262 257 253 255 254 244 223 195 178 131 88 81 105 123 125 130 133 139 142 147 153 159 168 172 173 173 175 180 180 180 181 185 184 184 182 182 189 187 191 197
246 233 236 252 257 262 261 256 238 222 206 129 130 111 88 67 70 95 108 121 135 141 148 156 161 168 171 174 173 172 178 182 180 180 182 185 186 186 185 189 193 188 195 201
253 240 231 238 247 246 260 265 235 230 136 118 91 74 74 68 57 80 88 89 111 141 147 154 169 173 173 176 173 177 182 185 183 184 186 188 194 190 190 191 193 194 197 198
250 245 241 234 239 259 263 304 24 78 91 88 94 81 67 51 44 53 63 64 65 78 134 155 167 169 171 174 173 180 185 189 187 188 191 191 193 190 190 188 190 194 198 200
250 246 250 238 330 307 243 67 61 83 83 84 96 95 70 53 55 60 57 51 43 41 72 116 148 161 159 164 170 176 181 185 184 184 186 186 188 187 184 182 189 193 194 203
248 255 258 328 353 353 72 101 59 78 81 85 97 84 72 59 64 60 55 47 44 44 53 63 81 135 143 158 159 168 174 176 175 169 171 179 182 176 176 178 187 189 194 198
239 250 253 14 340 332 294 84 57 70 73 70 65 75 91 77 69 63 59 51 50 52 51 45 53 79 100 104 113 138 145 138 136 138 146 149 148 147 152 166 170 176 169 158
229 235 197 19 10 31 46 46 64 72 79 85 95 97 90 81 73 67 62 58 59 59 54 45 45 64 73 66 64 82 93 97 103 105 122 137 128 129 134 149 156 165 158 155
49 81 84 75 75 73 75 70 69 83 89 94 102 97 92 84 78 71 66 62 60 64 61 52 46 53 63 58 64 71 74 77 78 83 78 72 89 98 101 107 138 147 147 151
99 97 87 79 78 71 68 72 73 84 90 98 98 96 92 86 80 74 68 63 63 63 61 54 47 46 46 49 61 73 76 76 77 80 77 69 67 67 69 65 70 89 99 115
117 115 99 79 74 75 71 76 82 82 82 91 96 94 91 87 80 76 72 68 66 65 63 57 51 46 41 41 54 69 74 78 82 83 88 81 73 58 65 57 51 57 53 55
115 120 112 101 88 85 82 80 82 86 86 86 90 93 91 88 83 80 77 72 70 68 65 57 53 48 42 35 42 55 64 68 85 98 100 104 103 82 55 68 69 72 71 76
95 102 105 104 92 86 89 88 86 89 92 91 89 92 91 88 84 81 78 74 72 70 67 60 55 50 40 33 37 47 55 54 64 80 95 104 114 121 115 82 66 67 72 75
100 107 106 102 97 98 98 97 94 93 93 94 94 94 92 90 86 81 77 76 74 73 67 62 57 50 40 35 38 44 51 51 46 58 70 87 96 106 120 130 126 112 93 86
102 109 115 114 112 112 110 109 106 104 102 98 95 95 94 92 88 85 82 80 74 70 64 59 54 43 31 32 41 47 46 39 36 40 57 65 67 70 72 76 87 111 118 102
108 115 120 120 118 118 117 115 113 112 109 106 102 98 96 94 90 85 80 74 72 68 61 56 51 41 33 28 27 55 64 48 34 39 49 51 52 54 57 58 59 60 66 59
129 130 127 125 124 124 120 118 117 115 114 113 112 110 106 101 96 90 84 78 74 68 61 53 44 39 37 27 15 27 41 48 37 44 50 40 39 42 44 43 49 60 64 54
129 130 132 130 127 124 122 122 120 120 119 118 117 114 110 105 100 97 94 89 81 70 56 48 38 36 38 28 10 15 27 37 41 43 47 39 29 35 38 43 44 47 51 54
128 130 126 123 126 125 121 120 119 118 118 118 115 109 104 101 99 96 89 82 76 69 53 44 37 39 40 26 6 17 31 36 41 43 41 37 35 37 36 37 35 38 34 33
123 121 119 123 123 119 116 117 118 118 116 113 110 105 100 95 92 90 84 72 60 57 55 42 38 39 33 17 1 24 35 37 36 37 38 37 37 38 37 39 38 36 33 33
121 120 120 119 113 111 112 115 115 111 108 105 104 100 95 92 89 85 85 79 58 39 50 52 43 30 24 358 352 31 37 37 37 39 39 38 39 41 42 40 37 34 29 27
112 113 112 109 107 105 104 104 107 107 104 100 96 95 94 92 90 83 75 73 66 38 42 48 42 23 2 353 30 39 39 39 38 39 39 40 41 42 41 38 36 34 29 23
103 102 104 106 106 105 104 103 101 101 99 97 93 89 82 75 76 83 80 67 65 52 51 46 21 8 357 14 41 43 43 41 39 40 41 43 42 40 39 37 33 27 24 22
103 104 105 106 107 107 106 103 101 99 100 98 95 92 89 85 81 81 87 81 64 65 64 48 17 5 357 31 48 49 48 42 39 40 41 41 41 40 36 33 30 26 27 24
99 101 102 103 105 106 108 110 110 107 104 99 97 89 79 77 81 84 89 93 105 98 89 70 23 2 20 45 49 48 51 44 37 37 43 40 38 37 33 29 29 27 27 25
93 93 92 88 90 98 103 103 106 107 105 101 95 90 88 91 95 97 95 92 83 74 76 77 65 47 47 55 57 53 53 55 50 49 47 43 40 37 29 23 26 25 24 26
94 94 98 101 95 92 95 91 86 84 85 90 92 90 86 84 82 82 84 85 78 71 64 62 62 59 56 53 59 59 55 52 49 48 48 47 39 33 30 28 29 29 24 28